Galveston, TX

4:18 PM CDT on May 26, 2017 (GMT -0500)
Scholes International At Galveston

Weather History for KGLS - March, 2013

Change the Weather History Date:

Sunday, March 24, 2013

  Actual Average Record
Temperature  
Mean Temperature 62 °F 65 °F  
Max Temperature 69 °F 72 °F 81 °F (2012)
Min Temperature 54 °F 59 °F 40 °F (1912)
Degree Days  
Heating Degree Days 3 2  
Month to date heating degree days 74 90  
Since 1 July heating degree days 684 978  
Cooling Degree Days 0 2  
Month to date cooling degree days 48 33  
Year to date cooling degree days 84 50  
Growing Degree Days 12 (Base 50)    
Moisture  
Dew Point 52 °F    
Average Humidity 65    
Maximum Humidity 100    
Minimum Humidity 29    
Precipitation  
Precipitation 0.00 in 0.08 in 1.95 in (1898)
Month to date precipitation 0.19 2.54  
Year to date precipitation 9.61 9.31  
Snow  
Snow 0.00 in - - ()
Month to date snowfall 0.0  
Since 1 July snowfall 0.0 0.0  
Snow Depth 0.00 in    
Sea Level Pressure  
Sea Level Pressure 29.86 in    
Wind  
Wind Speed 20 mph (NW)    
Max Wind Speed 32 mph    
Max Gust Speed 39 mph    
Visibility 7 miles    
Events Fog    
T = Trace of Precipitation, MM = Missing Value Source: NWS Daily Summary

Daily Weather History Graph

Daily Weather History Graph

Search for Another Location

Airport or City:

Trip Planner

Search our weather history database for the weather conditions in past years. The results will help you decide how hot, cold, wet, or windy it might be!

Date:

Astronomy

Mar. 24, 2013 Rise Set
Actual Time 7:18 AM CDT 7:33 PM CDT
Civil Twilight 6:54 AM CDT 7:57 PM CDT
Nautical Twilight 6:26 AM CDT 8:24 PM CDT
Astronomical Twilight 5:58 AM CDT 8:52 PM CDT
Moon 5:11 PM CDT (3/24) 5:17 AM CDT (3/24)
Length of Visible Light 13h 02m
Length of Day
12h 15m
Waxing Gibbous, 92% of the Moon is Illuminated
Mar 24
Waxing Gibbous
Mar 27
Full
Apr 2
Last Quarter
Apr 10
New
Apr 18
First Quarter

Hourly Weather History & Observations

Time (CDT) Temp. Dew Point Humidity Pressure Visibility Wind Dir Wind Speed Gust Speed Precip Events Conditions
12:00 AM 66.2 °F 66.2 °F 100% 29.68 in 0.2 mi Calm Calm - N/A Fog Fog
12:43 AM 66.2 °F 66.2 °F 100% 29.67 in 0.5 mi SSW 3.5 mph - N/A Fog Fog
12:52 AM 66.9 °F 66.9 °F 100% 29.67 in 0.2 mi South 3.5 mph - N/A Fog Fog
1:52 AM 66.0 °F 66.0 °F 100% 29.66 in 0.5 mi Calm Calm - N/A Fog Fog
2:07 AM 66.2 °F 66.2 °F 100% 29.66 in 0.2 mi Calm Calm - N/A Fog Fog
2:52 AM 66.9 °F 66.9 °F 100% 29.66 in 0.2 mi Calm Calm - N/A Fog Fog
3:12 AM 68.0 °F 68.0 °F 100% 29.67 in 0.5 mi West 5.8 mph - N/A Fog Fog
3:45 AM 69.8 °F 68.0 °F 94% 29.66 in 1.0 mi WNW 5.8 mph - N/A   Mist
3:52 AM 69.1 °F 68.0 °F 96% 29.67 in 2.0 mi WNW 5.8 mph - N/A   Overcast
4:01 AM 68.0 °F 68.0 °F 100% 29.66 in 6.0 mi WNW 5.8 mph - N/A   Overcast
4:19 AM 68.0 °F 68.0 °F 100% 29.66 in 7.0 mi West 3.5 mph - N/A   Overcast
4:30 AM 68.0 °F 68.0 °F 100% 29.70 in 7.0 mi NW 16.1 mph 20.7 mph N/A   Overcast
4:52 AM 68.0 °F 66.9 °F 96% 29.72 in 6.0 mi NNW 19.6 mph 26.5 mph 0.01 in   Overcast
5:50 AM 64.4 °F 60.8 °F 88% 29.78 in 10.0 mi NNW 27.6 mph 39.1 mph 0.02 in   Overcast
5:52 AM 64.0 °F 61.0 °F 90% 29.78 in 10.0 mi NNW 26.5 mph 39.1 mph 0.02 in   Overcast
6:31 AM 64.4 °F 59.0 °F 83% 29.84 in 10.0 mi NNW 20.7 mph 34.5 mph N/A   Overcast
6:52 AM 63.0 °F 57.9 °F 84% 29.86 in 10.0 mi NW 19.6 mph 33.4 mph N/A   Overcast
7:29 AM 62.6 °F 53.6 °F 72% 29.88 in 10.0 mi NNW 23.0 mph 34.5 mph N/A   Scattered Clouds
7:52 AM 61.0 °F 51.1 °F 70% 29.89 in 10.0 mi NNW 28.8 mph 36.8 mph N/A   Clear
8:52 AM 60.1 °F 48.9 °F 67% 29.94 in 10.0 mi NW 20.7 mph 29.9 mph N/A   Partly Cloudy
9:52 AM 61.0 °F 46.9 °F 60% 29.97 in 10.0 mi NW 23.0 mph 29.9 mph N/A   Partly Cloudy
10:52 AM 61.0 °F 44.1 °F 54% 30.00 in 10.0 mi NW 18.4 mph 25.3 mph N/A   Clear
11:52 AM 62.1 °F 37.0 °F 39% 30.01 in 10.0 mi NW 24.2 mph 31.1 mph N/A   Clear
12:52 PM 64.0 °F 36.0 °F 35% 30.00 in 10.0 mi NNW 23.0 mph 31.1 mph N/A   Clear
1:52 PM 64.9 °F 35.1 °F 33% 29.99 in 10.0 mi NNW 23.0 mph 32.2 mph N/A   Clear
2:52 PM 66.0 °F 34.0 °F 30% 29.97 in 10.0 mi NW 25.3 mph 32.2 mph N/A   Clear
3:52 PM 64.0 °F 33.1 °F 31% 29.97 in 10.0 mi North 26.5 mph 34.5 mph N/A   Clear
4:52 PM 64.0 °F 34.0 °F 33% 29.96 in 10.0 mi NNW 24.2 mph 32.2 mph N/A   Clear
5:52 PM 64.0 °F 35.1 °F 34% 29.96 in 10.0 mi NNW 16.1 mph 31.1 mph N/A   Clear
6:52 PM 62.1 °F 36.0 °F 38% 29.99 in 10.0 mi NNW 21.9 mph 26.5 mph N/A   Clear
7:52 PM 59.0 °F 34.0 °F 39% 30.02 in 10.0 mi NNW 18.4 mph - N/A   Clear
8:52 PM 57.9 °F 33.1 °F 39% 30.05 in 10.0 mi North 21.9 mph - N/A   Clear
9:52 PM 57.0 °F 34.0 °F 42% 30.08 in 10.0 mi NNW 18.4 mph 29.9 mph N/A   Clear
10:52 PM 55.9 °F 36.0 °F 47% 30.11 in 10.0 mi North 19.6 mph 28.8 mph N/A   Clear
11:52 PM 55.0 °F 33.1 °F 43% 30.14 in 10.0 mi North 21.9 mph 28.8 mph N/A   Clear